Weather History for Hibbing, MN

Change the Weather History Date:

Sunday, August 26, 2012

  Actual Average Record
Temperature  
Mean Temperature 67 °F -  
Max Temperature 80 °F 73 °F 93 °F (2013)
Min Temperature 53 °F 51 °F 33 °F (2008)
Cooling Degree Days 2    
Growing Degree Days 17 (Base 50)    
Moisture  
Dew Point 58 °F    
Average Humidity 79    
Maximum Humidity 100    
Minimum Humidity 29    
Precipitation  
Precipitation 0.00 in - - ()
Sea Level Pressure  
Sea Level Pressure 29.94 in    
Wind  
Wind Speed 3 mph (West)    
Max Wind Speed 14 mph    
Max Gust Speed 22 mph    
Visibility 7 miles    
Events Fog    
Averages and records for this station are not official NWS values.
T = Trace of Precipitation, MM = Missing Value Source: NWS Daily Summary

Daily Weather History Graph

Daily Weather History Graph

Search for Another Location

Airport:

Trip Planner

Search our weather history database for the weather conditions in past years. The results will help you decide how hot, cold, wet, or windy it might be!

Date:

Astronomy

Aug. 26, 2012 Rise Set
Actual Time 6:22 AM CDT 8:02 PM CDT
Civil Twilight 5:50 AM CDT 8:34 PM CDT
Nautical Twilight 5:11 AM CDT 9:13 PM CDT
Astronomical Twilight 4:28 AM CDT 9:56 PM CDT
Moon 4:45 PM CDT (8/26) 12:50 AM CDT (8/26)
Length of Visible Light 14h 43m
Length of Day
13h 39m
Waxing Gibbous, 73% of the Moon is Illuminated
Aug 26
Waxing Gibbous
Aug 31
Full
Sep 8
Last Quarter
Sep 15
New
Sep 22
First Quarter

Hourly Weather History & Observations

Time (CDT) Temp. Dew Point Humidity Pressure Visibility Wind Dir Wind Speed Gust Speed Precip Events Conditions
12:53 AM 66.9 °F 64.9 °F 93% 29.93 in 8.0 mi Calm Calm - N/A   Overcast
1:01 AM 66.2 °F 64.4 °F 94% 29.94 in 9.0 mi Variable 3.5 mph - N/A   Overcast
1:42 AM 66.2 °F 64.4 °F 94% 29.93 in 9.0 mi Calm Calm - N/A   Overcast
1:53 AM 66.0 °F 64.9 °F 96% 29.93 in 8.0 mi Calm Calm - N/A   Overcast
2:15 AM 66.2 °F 64.4 °F 94% 29.93 in 7.0 mi SSW 3.5 mph - N/A   Overcast
2:36 AM 66.2 °F 64.4 °F 94% 29.93 in 6.0 mi Calm Calm - N/A   Overcast
2:53 AM 64.9 °F 64.0 °F 97% 29.92 in 6.0 mi SW 3.5 mph - N/A   Mostly Cloudy
3:16 AM 64.4 °F 64.4 °F 100% 29.92 in 1.8 mi SW 3.5 mph - N/A   Scattered Clouds
3:20 AM 64.4 °F 62.6 °F 94% 29.92 in 0.8 mi Calm Calm - N/A   Scattered Clouds
3:33 AM 62.6 °F 62.6 °F 100% 29.92 in 0.5 mi Calm Calm - N/A Fog Fog
3:48 AM 62.6 °F 62.6 °F 100% 29.92 in 0.2 mi Calm Calm - N/A Fog Fog
3:53 AM 63.0 °F 63.0 °F 100% 29.92 in 0.2 mi Calm Calm - N/A Fog Fog
4:53 AM 63.0 °F 63.0 °F 100% 29.93 in 0.2 mi Calm Calm - N/A Fog Fog
5:33 AM 62.6 °F 62.6 °F 100% 29.92 in 0.5 mi Calm Calm - N/A Fog Fog
5:48 AM 62.6 °F 62.6 °F 100% 29.92 in 1.8 mi Calm Calm - N/A   Overcast
5:53 AM 63.0 °F 62.1 °F 97% 29.92 in 1.2 mi Calm Calm - N/A   Overcast
6:07 AM 62.6 °F 62.6 °F 100% 29.92 in 2.5 mi Variable 3.5 mph - N/A   Overcast
6:14 AM 62.6 °F 62.6 °F 100% 29.92 in 5.0 mi Variable 3.5 mph - N/A   Overcast
6:53 AM 62.1 °F 61.0 °F 96% 29.93 in 5.0 mi Calm Calm - N/A   Overcast
7:53 AM 62.1 °F 61.0 °F 96% 29.94 in 5.0 mi SW 4.6 mph - N/A   Overcast
8:29 AM 62.6 °F 60.8 °F 94% 29.94 in 6.0 mi WSW 5.8 mph - N/A   Mostly Cloudy
8:41 AM 62.6 °F 60.8 °F 94% 29.95 in 10.0 mi WSW 6.9 mph - N/A   Scattered Clouds
8:53 AM 64.0 °F 61.0 °F 90% 29.95 in 10.0 mi SW 5.8 mph - N/A   Partly Cloudy
9:53 AM 68.0 °F 60.1 °F 76% 29.94 in 10.0 mi WSW 5.8 mph - N/A   Clear
10:53 AM 73.0 °F 55.9 °F 55% 29.95 in 10.0 mi Variable 4.6 mph - N/A   Clear
11:53 AM 75.0 °F 50.0 °F 41% 29.94 in 10.0 mi WNW 12.7 mph 17.3 mph N/A   Clear
12:53 PM 78.1 °F 51.1 °F 39% 29.92 in 10.0 mi WNW 12.7 mph 18.4 mph N/A   Clear
1:53 PM 78.1 °F 48.0 °F 35% 29.91 in 10.0 mi West 13.8 mph 21.9 mph N/A   Clear
2:53 PM 78.1 °F 48.0 °F 35% 29.91 in 10.0 mi Variable 6.9 mph 21.9 mph N/A   Clear
3:53 PM 78.8 °F 46.4 °F 32% 29.92 in 10.0 mi West 13.8 mph 20.7 mph N/A   Clear
4:53 PM 79.0 °F 44.1 °F 29% 29.91 in 10.0 mi WNW 8.1 mph 20.7 mph N/A   Clear
5:53 PM 78.1 °F 44.1 °F 30% 29.93 in 10.0 mi WNW 9.2 mph 18.4 mph N/A   Clear
6:53 PM 75.9 °F 46.9 °F 36% 29.94 in 10.0 mi NW 8.1 mph - N/A   Clear
7:53 PM 71.1 °F 51.1 °F 49% 29.96 in 10.0 mi NW 4.6 mph - N/A   Partly Cloudy
8:53 PM 64.0 °F 53.1 °F 67% 29.99 in 10.0 mi NNW 4.6 mph - N/A   Clear
9:53 PM 59.0 °F 54.0 °F 83% 30.00 in 10.0 mi Calm Calm - N/A   Clear
10:53 PM 55.0 °F 53.1 °F 93% 30.01 in 10.0 mi Calm Calm - N/A   Clear
11:53 PM 53.1 °F 51.1 °F 93% 30.03 in 10.0 mi Calm Calm - N/A   Clear